Theta_e
343 343 344 344 344 341 339 338 338 337 336 337 339 336 338 341 340 338 334 335 337 337 333 328 328 324 322 322 320 320 321 321 321 320 318 315 314 314
346 344 342 343 343 340 337 337 338 337 338 337 337 336 340 340 337 335 332 335 332 328 327 324 323 321 320 320 321 322 322 321 317 313 312 313 313 313
344 343 343 340 337 335 337 339 340 339 339 338 337 338 337 338 337 330 325 325 322 323 325 321 319 315 316 319 321 321 317 313 313 314 315 317 317 314
344 342 339 337 337 338 339 338 339 340 338 338 338 337 336 336 337 330 326 325 326 323 320 314 313 313 316 315 314 313 313 314 316 320 321 321 321 320
341 339 337 336 336 338 339 340 339 339 339 338 337 336 335 335 329 328 328 328 327 325 316 312 313 313 313 313 314 314 315 320 322 322 322 322 322 322
337 335 335 335 336 338 337 336 339 338 338 337 336 335 334 332 330 329 328 328 328 328 326 313 317 315 315 316 316 317 320 321 321 322 323 323 323 323
335 336 337 337 337 336 337 337 337 336 335 333 334 334 334 333 332 331 331 329 331 328 323 320 319 319 320 320 321 321 322 323 323 324 324 324 324 323
336 336 336 335 335 335 334 337 337 333 335 334 333 333 330 332 333 333 333 331 330 325 324 324 324 323 325 322 322 322 322 323 323 324 325 325 324 325
338 337 336 336 334 334 333 333 334 334 334 334 333 332 333 333 331 330 329 329 329 326 326 326 325 326 326 327 325 321 323 323 324 324 325 325 325 324
335 335 335 336 333 334 332 331 330 331 332 333 335 336 335 334 333 331 330 329 327 326 324 325 326 327 328 329 329 326 325 324 325 324 324 325 326 325
333 333 333 335 334 330 329 329 331 331 331 331 334 333 335 334 334 330 330 328 326 330 329 324 326 327 327 328 328 327 324 321 321 321 324 325 325 325
333 333 334 334 334 333 332 332 332 333 331 329 332 332 333 331 329 329 330 329 327 328 329 324 328 327 327 327 329 327 326 325 322 322 324 325 325 325
334 334 334 333 333 332 331 334 333 334 331 331 330 329 332 332 330 330 331 331 327 326 327 327 324 327 328 326 328 327 325 327 323 323 323 324 324 325
333 334 334 334 331 331 331 331 331 332 332 331 330 329 329 329 328 328 326 329 330 328 329 328 327 324 327 327 326 324 327 330 330 330 329 325 325 324
334 334 334 331 330 331 330 330 330 331 332 329 326 326 326 326 325 325 325 323 324 324 325 330 331 330 328 327 326 322 329 332 330 329 331 329 329 329
334 332 333 331 331 331 330 330 330 332 330 326 326 325 325 325 326 327 328 329 327 324 320 325 324 326 327 325 324 325 328 330 328 330 331 328 330 330
334 334 332 331 332 331 332 330 331 331 329 327 325 324 324 325 325 326 325 327 328 326 325 324 318 315 319 321 323 324 325 329 331 329 329 330 328 329
334 334 333 333 332 332 331 331 329 327 326 325 325 324 324 324 325 325 326 327 325 326 326 325 328 329 327 322 322 323 326 330 328 328 328 330 329 329
332 332 332 332 332 332 331 329 327 326 326 325 325 324 323 324 325 325 325 326 325 326 326 325 325 327 331 329 327 322 327 330 327 328 328 329 329 329
332 332 332 332 330 327 325 324 324 324 325 325 325 324 323 325 324 325 325 327 328 326 324 326 327 325 327 329 328 328 328 326 324 325 329 330 330 329
330 330 329 328 328 326 325 325 325 326 323 324 324 324 323 323 324 325 325 324 324 323 325 326 324 326 327 326 327 327 328 329 328 328 329 330 332 330
326 326 325 326 325 325 325 326 325 324 328 329 328 328 326 325 325 324 324 324 324 324 325 325 325 327 327 327 327 327 328 326 327 328 329 330 331 331
326 326 326 325 324 325 328 329 328 329 328 326 326 326 328 330 330 328 327 326 326 325 326 325 324 323 325 326 326 326 328 327 326 329 329 328 329 327
Wind_Speed
38 34 33 29 30 39 41 44 41 35 37 40 30 29 24 23 15 11 12 13 13 13 12 11 10 11 12 12 12 11 11 11 10 9 8 7 6 6
31 32 30 27 29 32 38 40 41 44 37 29 32 30 23 22 15 18 13 14 14 13 11 10 11 12 13 13 13 13 12 11 9 9 8 7 5 4
31 30 32 31 30 32 32 32 35 36 42 29 27 29 24 25 20 23 19 16 15 11 11 11 10 11 13 14 15 13 12 12 11 10 9 7 5 4
29 29 28 30 36 28 26 22 33 35 29 32 25 28 28 30 32 27 25 18 10 7 8 10 11 12 13 13 14 14 13 13 12 11 9 6 4 3
26 26 26 26 26 24 25 27 28 30 28 29 31 24 28 36 33 29 21 16 19 13 11 13 12 12 13 14 15 15 14 14 13 10 7 5 4 3
30 30 26 22 20 19 17 16 32 32 29 26 21 19 23 23 22 23 22 20 12 15 15 15 14 15 15 15 15 16 16 14 11 9 8 7 5 5
10 10 8 8 9 8 7 9 12 15 17 20 20 24 28 30 27 26 21 19 20 16 15 16 17 17 16 17 16 16 15 13 11 9 9 9 8 8
8 8 7 6 8 12 9 7 8 11 22 18 16 27 29 28 28 25 21 19 16 20 18 18 15 16 14 15 15 15 15 13 12 10 10 12 10 9
7 6 8 9 12 16 14 11 7 11 12 16 19 21 20 22 23 26 22 18 17 15 21 19 20 18 16 19 13 16 15 15 14 14 12 13 12 11
7 5 5 8 11 16 17 14 11 11 11 10 12 16 19 21 22 22 22 19 16 15 16 19 21 19 17 15 17 14 14 17 16 15 15 16 15 14
9 8 9 10 15 16 17 16 13 13 13 14 13 13 14 16 21 20 18 17 17 18 18 18 17 20 16 15 15 14 16 18 19 18 17 17 17 16
15 14 16 15 17 18 17 14 15 14 12 14 14 12 13 14 20 19 17 18 16 19 21 16 18 19 15 17 16 14 15 13 17 18 18 18 18 17
17 18 19 19 17 18 17 14 15 16 15 11 11 11 13 13 17 24 19 20 18 17 17 22 18 19 17 17 22 19 19 14 16 15 18 19 18 17
17 15 17 18 19 16 16 14 12 15 14 12 13 14 14 15 16 19 24 23 15 6 10 23 20 21 20 21 17 18 21 21 17 16 15 15 14 13
18 17 21 18 19 18 18 16 15 15 16 15 14 15 16 17 17 18 19 24 30 22 18 19 19 17 14 14 15 17 20 16 19 20 20 18 20 16
21 21 19 20 21 20 19 20 18 16 16 16 16 16 16 17 18 17 19 16 14 21 28 21 26 23 18 17 20 18 23 21 21 20 21 19 18 19
21 20 21 23 24 21 21 18 17 18 19 18 17 17 17 18 20 20 20 21 19 17 18 21 28 32 33 29 24 24 23 19 19 16 21 21 18 22
23 22 21 22 24 21 20 19 18 20 20 20 19 19 19 20 21 22 23 21 21 21 21 21 24 19 21 28 34 30 26 25 19 21 20 21 17 19
20 20 21 21 19 19 21 19 21 22 23 21 21 20 20 22 22 23 23 24 25 23 21 22 23 26 24 26 26 29 30 24 24 24 27 28 24 20
19 19 17 19 20 19 20 21 20 20 20 20 21 22 22 23 23 24 24 24 23 27 26 27 24 27 28 28 23 23 27 24 28 31 26 25 27 23
21 22 21 23 22 20 21 21 20 19 23 22 23 23 24 24 25 25 25 26 27 28 31 26 32 30 26 28 30 30 26 27 27 28 27 28 26 29
21 21 23 23 23 22 23 23 22 22 23 24 23 25 28 30 27 25 27 28 28 31 30 28 28 30 30 32 33 29 29 32 33 34 33 32 30 29
24 24 24 23 25 25 23 22 24 25 27 28 30 31 28 30 30 31 32 32 31 31 28 32 32 32 32 34 36 38 35 30 34 32 36 37 36 33
Wind_Direction
256 248 243 245 247 257 267 264 254 250 255 252 244 256 242 230 236 224 230 220 211 200 188 186 186 198 200 202 201 204 208 217 222 225 227 226 226 232
247 244 247 240 246 256 263 266 263 259 250 251 252 250 223 211 231 204 207 196 188 184 182 194 206 213 216 216 216 219 222 215 199 189 188 191 191 201
250 237 242 249 256 260 267 267 263 254 232 229 239 231 237 231 233 203 190 182 185 198 203 209 215 216 219 218 217 211 194 185 179 177 167 163 166 179
246 247 253 254 264 262 263 268 235 221 234 227 231 234 239 237 236 197 183 173 171 205 224 210 201 199 189 185 184 182 182 180 171 166 164 158 149 164
256 249 253 260 252 253 255 254 248 237 232 229 240 245 230 209 183 179 173 173 180 186 198 204 196 192 185 182 182 180 179 173 173 178 178 179 183 170
261 259 257 253 248 243 248 247 228 223 220 222 236 212 201 186 178 172 173 179 169 209 225 203 194 194 190 184 181 177 179 184 193 203 213 216 225 227
243 229 218 224 211 209 186 188 180 188 187 177 181 185 187 176 179 178 184 172 192 192 205 195 190 190 190 191 188 190 194 199 205 219 229 234 240 245
228 209 207 221 190 166 163 183 187 174 175 174 178 177 179 185 185 183 182 183 191 191 197 196 202 205 204 211 208 205 205 210 222 229 237 234 235 246
212 206 210 210 192 189 183 183 177 175 179 182 187 191 193 193 195 190 192 189 192 197 194 202 199 212 210 218 204 203 213 223 233 233 238 230 239 243
217 224 228 211 202 198 195 193 190 182 183 189 216 208 210 202 203 195 187 189 198 201 196 208 206 212 222 232 213 216 226 232 233 235 237 233 236 246
254 263 266 241 212 201 198 197 191 189 194 188 201 203 195 192 189 175 184 182 192 196 201 202 208 212 208 211 226 240 252 242 238 233 227 231 235 244
255 260 266 231 213 206 207 208 198 187 185 195 197 194 181 182 169 176 187 194 203 204 204 206 200 199 212 213 223 239 241 236 228 223 224 230 234 243
252 257 246 223 211 203 205 208 210 189 185 190 179 175 183 195 194 190 200 216 222 229 217 203 208 217 213 233 229 226 236 233 216 222 230 230 234 238
236 241 215 221 208 202 205 216 205 185 180 192 195 197 197 208 210 214 214 222 215 241 187 197 205 213 223 229 225 227 224 216 226 229 241 235 233 237
220 224 226 217 205 206 202 209 209 189 202 203 212 218 217 218 215 219 226 233 227 231 231 203 201 222 234 236 234 234 212 200 219 236 231 244 235 245
212 218 213 204 206 207 212 215 209 205 209 216 224 222 221 219 214 215 212 219 231 236 238 223 222 216 224 234 237 244 216 225 241 228 242 244 246 243
205 208 203 199 199 206 213 208 210 212 218 221 226 227 225 222 221 219 222 224 220 223 229 239 240 242 239 233 239 238 241 238 236 240 229 240 247 243
205 195 195 200 201 209 210 208 211 213 219 223 227 230 231 228 227 224 222 219 229 231 228 225 223 224 228 232 227 231 237 243 234 241 244 239 238 242
202 208 210 207 210 208 212 215 222 221 222 222 227 227 228 235 231 230 225 225 225 232 233 228 223 225 219 231 238 238 229 233 235 245 240 236 238 241
212 221 223 220 217 220 222 223 228 230 228 226 228 230 229 232 229 230 233 233 229 231 239 239 229 226 229 233 237 238 238 238 237 234 242 242 248 246
223 222 225 225 226 226 228 222 221 221 224 219 220 225 225 225 235 236 234 236 239 240 244 241 240 239 241 241 240 238 242 241 243 237 235 239 245 235
224 225 225 226 229 230 227 224 231 232 225 229 235 234 226 229 231 234 236 240 239 237 238 241 241 244 240 244 245 247 245 249 250 252 243 239 238 240
227 229 227 226 225 229 228 225 233 232 230 234 232 227 226 232 231 235 237 238 241 245 242 237 236 240 245 242 241 246 246 246 242 252 249 244 243 246